When you browse on this site, cookies collect data to enhance your experience and personalize the content and advertising you see.
Visit our Privacy Policy to learn more. By continuing to use the site, you agree to this use of cookies and data.
  • In Schweiz
  • Länderverzeichnis
  • Für 7 Tage
  • Wassertemperatur
  • Satellitenkarten
  • Wetterkarte
  • Widgets
  • user-avatar
    Anmelden

    Stündliche Wetter Moung

    Heute, 14 Dezember, Freitag

    Zeit Temperatur Niederschläge Wind Luftdruck Luftfeuchtigkeit
    00:00 +28°C° 0 mm 3 m/S 759 mmHg 72%
    01:00 +28°C° 0 mm 4 m/S 759 mmHg 73%
    02:00 +27°C° 0 mm 4 m/S 759 mmHg 75%
    03:00 +27°C° 0 mm 4 m/S 759 mmHg 76%
    04:00 +26°C° 0 mm 4 m/S 759 mmHg 77%
    05:00 +26°C° 0 mm 4 m/S 759 mmHg 77%
    06:00 +26°C° 0 mm 4 m/S 759 mmHg 78%
    07:00 +26°C° 0 mm 4 m/S 759 mmHg 78%
    08:00 +28°C° 0 mm 5 m/S 760 mmHg 72%
    09:00 +29°C° 0 mm 6 m/S 760 mmHg 66%
    10:00 +32°C° 0 mm 7 m/S 760 mmHg 60%
    11:00 +33°C° 0 mm 6 m/S 759 mmHg 57%
    12:00 +34°C° 0 mm 6 m/S 758 mmHg 54%
    13:00 +35°C° 0 mm 6 m/S 758 mmHg 51%
    14:00 +35°C° 0 mm 5 m/S 757 mmHg 51%
    15:00 +35°C° 0 mm 5 m/S 757 mmHg 51%
    16:00 +35°C° 0 mm 4 m/S 756 mmHg 51%
    17:00 +34°C° 0 mm 4 m/S 757 mmHg 54%
    18:00 +33°C° 0 mm 3 m/S 757 mmHg 57%
    19:00 +31°C° 0 mm 3 m/S 757 mmHg 61%
    20:00 +30°C° 0 mm 3 m/S 757 mmHg 62%
    21:00 +30°C° 0 mm 4 m/S 758 mmHg 62%
    22:00 +29°C° 0 mm 5 m/S 758 mmHg 63%
    23:00 +29°C° 0 mm 4 m/S 758 mmHg 65%

    Morgen, 15 Dezember, Samstag

    Zeit Temperatur Niederschläge Wind Luftdruck Luftfeuchtigkeit
    00:00 +28°C° 0 mm 4 m/S 758 mmHg 68%
    01:00 +27°C° 0 mm 3 m/S 758 mmHg 70%
    02:00 +27°C° 0 mm 3 m/S 758 mmHg 71%
    03:00 +27°C° 0 mm 3 m/S 758 mmHg 73%
    04:00 +26°C° 0 mm 3 m/S 758 mmHg 74%
    05:00 +26°C° 0 mm 3 m/S 758 mmHg 75%
    06:00 +26°C° 0 mm 3 m/S 758 mmHg 77%
    07:00 +26°C° 0 mm 4 m/S 759 mmHg 78%
    08:00 +28°C° 0 mm 5 m/S 759 mmHg 72%
    09:00 +30°C° 0 mm 5 m/S 759 mmHg 67%
    10:00 +32°C° 0 mm 6 m/S 759 mmHg 62%
    11:00 +33°C° 0 mm 6 m/S 759 mmHg 59%
    12:00 +34°C° 0 mm 6 m/S 758 mmHg 56%
    13:00 +35°C° 0 mm 6 m/S 757 mmHg 53%
    14:00 +35°C° 0.7 mm 5 m/S 757 mmHg 57%
    15:00 +34°C° 0.7 mm 4 m/S 757 mmHg 60%
    16:00 +34°C° 0.7 mm 3 m/S 756 mmHg 63%
    17:00 +33°C° 0.6 mm 3 m/S 757 mmHg 66%
    18:00 +31°C° 0.6 mm 3 m/S 757 mmHg 68%
    19:00 +30°C° 0.6 mm 3 m/S 757 mmHg 71%
    20:00 +29°C° 0.2 mm 3 m/S 758 mmHg 72%
    21:00 +29°C° 0.2 mm 3 m/S 758 mmHg 74%
    22:00 +28°C° 0.2 mm 4 m/S 759 mmHg 75%
    23:00 +27°C° 0.1 mm 3 m/S 759 mmHg 77%

    übermorgen, 16 Dezember, Sonntag

    Zeit Temperatur Niederschläge Wind Luftdruck Luftfeuchtigkeit
    00:00 +27°C° 0.1 mm 3 m/S 759 mmHg 78%
    01:00 +26°C° 0.1 mm 3 m/S 759 mmHg 80%
    02:00 +26°C° 0 mm 3 m/S 758 mmHg 80%
    03:00 +26°C° 0 mm 3 m/S 758 mmHg 81%
    04:00 +26°C° 0 mm 3 m/S 758 mmHg 81%
    05:00 +26°C° 0 mm 3 m/S 758 mmHg 81%
    06:00 +26°C° 0 mm 3 m/S 759 mmHg 81%
    07:00 +26°C° 0 mm 3 m/S 759 mmHg 81%
    08:00 +28°C° 0 mm 4 m/S 759 mmHg 74%
    09:00 +30°C° 0 mm 5 m/S 760 mmHg 68%
    10:00 +33°C° 0 mm 6 m/S 760 mmHg 61%
    11:00 +34°C° 0 mm 5 m/S 759 mmHg 58%
    12:00 +35°C° 0 mm 5 m/S 758 mmHg 55%
    13:00 +36°C° 0 mm 5 m/S 757 mmHg 51%
    14:00 +36°C° 0 mm 4 m/S 757 mmHg 52%
    15:00 +36°C° 0 mm 4 m/S 756 mmHg 52%
    16:00 +36°C° 0 mm 3 m/S 756 mmHg 52%
    17:00 +34°C° 0 mm 3 m/S 756 mmHg 55%
    18:00 +32°C° 0 mm 2 m/S 757 mmHg 58%
    19:00 +31°C° 0 mm 2 m/S 757 mmHg 61%
    20:00 +31°C° 0 mm 2 m/S 758 mmHg 62%
    21:00 +30°C° 0 mm 3 m/S 758 mmHg 62%
    22:00 +30°C° 0 mm 4 m/S 759 mmHg 62%
    23:00 +29°C° 0 mm 3 m/S 758 mmHg 64%

    17 Dezember, Montag

    Zeit Temperatur Niederschläge Wind Luftdruck Luftfeuchtigkeit
    00:00 +28°C° 0 mm 3 m/S 758 mmHg 66%
    01:00 +27°C° 0 mm 3 m/S 758 mmHg 67%
    02:00 +27°C° 0 mm 3 m/S 758 mmHg 68%
    03:00 +27°C° 0 mm 3 m/S 757 mmHg 70%
    04:00 +26°C° 0 mm 3 m/S 757 mmHg 71%
    05:00 +26°C° 0 mm 3 m/S 758 mmHg 73%
    06:00 +26°C° 0 mm 3 m/S 758 mmHg 74%
    07:00 +26°C° 0 mm 3 m/S 759 mmHg 75%
    08:00 +28°C° 0 mm 4 m/S 759 mmHg 69%
    09:00 +30°C° 0 mm 5 m/S 759 mmHg 63%
    10:00 +33°C° 0 mm 5 m/S 760 mmHg 57%
    11:00 +34°C° 0 mm 5 m/S 759 mmHg 54%
    12:00 +35°C° 0 mm 5 m/S 758 mmHg 51%
    13:00 +36°C° 0 mm 4 m/S 757 mmHg 49%
    14:00 +36°C° 0 mm 4 m/S 757 mmHg 49%
    15:00 +36°C° 0 mm 3 m/S 756 mmHg 49%
    16:00 +36°C° 0 mm 3 m/S 756 mmHg 49%
    17:00 +34°C° 0 mm 2 m/S 756 mmHg 52%
    18:00 +32°C° 0 mm 2 m/S 757 mmHg 55%
    19:00 +31°C° 0 mm 1 m/S 757 mmHg 58%
    20:00 +31°C° 0.1 mm 2 m/S 758 mmHg 60%
    21:00 +30°C° 0.1 mm 2 m/S 758 mmHg 63%
    22:00 +29°C° 0.1 mm 3 m/S 759 mmHg 65%
    23:00 +29°C° 0 mm 3 m/S 759 mmHg 67%

    18 Dezember, Dienstag

    Zeit Temperatur Niederschläge Wind Luftdruck Luftfeuchtigkeit
    00:00 +28°C° 0 mm 3 m/S 758 mmHg 68%
    01:00 +28°C° 0 mm 3 m/S 758 mmHg 70%
    02:00 +27°C° 0 mm 3 m/S 758 mmHg 70%
    03:00 +27°C° 0 mm 3 m/S 758 mmHg 70%
    04:00 +26°C° 0 mm 3 m/S 757 mmHg 71%
    05:00 +26°C° 0 mm 3 m/S 758 mmHg 72%
    06:00 +26°C° 0 mm 3 m/S 758 mmHg 73%
    07:00 +26°C° 0 mm 3 m/S 759 mmHg 73%
    08:00 +27°C° 0 mm 3 m/S 759 mmHg 68%
    09:00 +29°C° 0 mm 4 m/S 759 mmHg 62%
    10:00 +32°C° 0 mm 4 m/S 760 mmHg 56%
    11:00 +33°C° 0 mm 4 m/S 759 mmHg 53%
    12:00 +34°C° 0 mm 4 m/S 758 mmHg 51%
    13:00 +35°C° 0 mm 4 m/S 757 mmHg 48%
    14:00 +35°C° 0 mm 3 m/S 757 mmHg 48%
    15:00 +35°C° 0 mm 3 m/S 756 mmHg 47%
    16:00 +35°C° 0 mm 3 m/S 755 mmHg 47%
    17:00 +34°C° 0 mm 2 m/S 756 mmHg 50%
    18:00 +32°C° 0 mm 2 m/S 757 mmHg 53%
    19:00 +30°C° 0 mm 1 m/S 757 mmHg 56%
    20:00 +30°C° 0 mm 1 m/S 758 mmHg 57%
    21:00 +30°C° 0 mm 1 m/S 758 mmHg 58%
    22:00 +29°C° 0 mm 1 m/S 759 mmHg 60%
    23:00 +28°C° 0 mm 1 m/S 758 mmHg 63%

    19 Dezember, Mittwoch

    Zeit Temperatur Niederschläge Wind Luftdruck Luftfeuchtigkeit
    00:00 +28°C° 0 mm 1 m/S 758 mmHg 65%
    01:00 +27°C° 0 mm 2 m/S 758 mmHg 68%
    02:00 +27°C° 0 mm 2 m/S 758 mmHg 70%
    03:00 +27°C° 0 mm 2 m/S 758 mmHg 72%
    04:00 +26°C° 0 mm 2 m/S 758 mmHg 73%
    05:00 +26°C° 0 mm 2 m/S 758 mmHg 74%
    06:00 +26°C° 0 mm 2 m/S 758 mmHg 75%
    07:00 +26°C° 0 mm 2 m/S 759 mmHg 76%
    08:00 +27°C° 0 mm 2 m/S 759 mmHg 71%
    09:00 +29°C° 0 mm 2 m/S 759 mmHg 66%
    10:00 +31°C° 0 mm 2 m/S 759 mmHg 62%
    11:00 +32°C° 0 mm 2 m/S 759 mmHg 58%
    12:00 +34°C° 0 mm 2 m/S 758 mmHg 55%
    13:00 +35°C° 0 mm 2 m/S 757 mmHg 51%
    14:00 +35°C° 0 mm 2 m/S 757 mmHg 51%
    15:00 +34°C° 0 mm 1 m/S 756 mmHg 51%
    16:00 +34°C° 0 mm 1 m/S 756 mmHg 51%
    17:00 +33°C° 0 mm 1 m/S 756 mmHg 54%
    18:00 +32°C° 0 mm 1 m/S 757 mmHg 57%
    19:00 +31°C° 0 mm 1 m/S 758 mmHg 60%
    20:00 +31°C° 0 mm 2 m/S 758 mmHg 63%
    21:00 +30°C° 0 mm 2 m/S 758 mmHg 65%
    22:00 +30°C° 0 mm 2 m/S 759 mmHg 68%
    23:00 +29°C° 0 mm 2 m/S 759 mmHg 71%
    Mehr zeigen